HELSINKI-MALMI current weather conditions

sailwx.info

Air temperature -4.0° C
Visibility: greater than 3.8 NM
Dewpoint -4.0° C

Last reported at 2014-Nov-22 22:20 UTC.
Time now 2014-Nov-23 00:00 UTC

Location: N 60°15' E 025°03'.
View on Google Maps.

See reports from other nearby stations

  
Tides and Currents Weather Stations Pressure Air Temp Water Temp Dewpoint Dewpoint Depression Visibility Wind Speed Wind Dir Waves Ship Positions
date/time (UTC)wind fromknots sea level pressurealtimeterstation pressurevisibilityair tempwater tempwave heightnotes
2014-Nov-22 22:20 3.8-4.0
2014-Nov-22 21:50 3.8-4.0
2014-Nov-22 21:20 3.2-4.0
2014-Nov-22 20:50 0.1-5.0
2014-Nov-22 20:20 090 1 2.2-3.0 Freezing mist.
2014-Nov-22 19:50 0.2-4.0
2014-Nov-22 19:20 3.2-3.0
2014-Nov-22 18:50 4.3-3.0
2014-Nov-22 18:20 4.3-3.0
2014-Nov-22 17:50 4.3-3.0
2014-Nov-22 17:20 310 2 4.9-2.0
2014-Nov-22 16:50 5.4-2.0
2014-Nov-22 16:20 5.4-2.0
2014-Nov-22 15:50 5.4-2.0
2014-Nov-22 15:20 260 2 5.4-2.0
2014-Nov-22 14:50 290 0 5.4-2.0
2014-Nov-22 14:20 310 3 5.4-1.0
2014-Nov-22 13:50 310 1 5.4-1.0
2014-Nov-22 13:20 310 3 5.4-1.0
2014-Nov-22 12:50 310 4 5.4-1.0
2014-Nov-22 12:20 310 4 5.4-1.0
2014-Nov-22 11:50 310 3 5.4-1.0
2014-Nov-22 11:20 320 3 -1.0
2014-Nov-22 10:50 300 3 5.4-1.0
2014-Nov-22 10:20 310 4 5.4-1.0
2014-Nov-22 09:50 310 4 5.4-1.0
2014-Nov-22 09:20 320 3 5.4-2.0
2014-Nov-22 08:50 300 4 4.9-2.0
2014-Nov-22 08:20 290 1 4.9-2.0
2014-Nov-22 07:50 310 2 4.9-2.0
2014-Nov-22 07:20 320 3 4.9-2.0 Light snow.
2014-Nov-22 06:50 280 2 3.2-2.0 Light snow.
2014-Nov-22 06:20 310 2 3.2-2.0 Light snow.
2014-Nov-22 05:50 310 2 3.2-2.0
2014-Nov-22 05:20 310 2 4.3-2.0 Light snow.
2014-Nov-22 04:50 320 4 4.9-2.0
2014-Nov-22 04:20 300 2 3.8-2.0
2014-Nov-22 03:50 300 1 4.3-2.0
2014-Nov-22 03:20 320 2 4.3-2.0
2014-Nov-22 02:50 300 1 4.9-2.0
2014-Nov-22 02:20 310 3 4.9-2.0
2014-Nov-22 01:50 310 2 4.3-2.0
2014-Nov-22 01:20 320 2 4.3-2.0 Light snow.
2014-Nov-22 00:50 330 1 3.8-2.0
2014-Nov-22 00:20 340 3 5.4-2.0
2014-Nov-21 23:50 330 1 2.7-2.0
2014-Nov-21 23:20 340 3 3.2-2.0 Light snow showers.
2014-Nov-21 22:50 340 2 3.8-2.0
2014-Nov-21 22:20 340 2 4.9-2.0
2014-Nov-21 21:50 340 1 5.4-2.0
2014-Nov-21 21:20 350 2 5.4-2.0
2014-Nov-21 20:50 010 1 5.4-2.0
2014-Nov-21 20:20 350 1 3.2-2.0 Light freezing rain.
2014-Nov-21 19:50 3.2-2.0 Light snow.
2014-Nov-21 19:20 030 2 2.6-2.0 Light freezing rain.
2014-Nov-21 18:50 3.8-2.0 Light snow showers.
2014-Nov-21 18:20 040 2 2.2-2.0 Light snow.
2014-Nov-21 17:50 020 2 1.9-2.0 Light snow.
2014-Nov-21 17:20 0.7-2.0 Snow.
2014-Nov-21 16:50 050 3 1.3-2.0 Light snow.
2014-Nov-21 16:20 050 4 0.5-2.0 Snow.
2014-Nov-21 15:50 040 3 0.5-2.0 Snow.
2014-Nov-21 15:20 0.5-2.0 Snow.
2014-Nov-21 14:50 030 4 0.5-2.0 Snow.
2014-Nov-21 14:20 0.5-2.0 Snow.
2014-Nov-21 13:50 0.5-2.0 Snow.
2014-Nov-21 13:20 040 3 0.5-2.0 Snow.
2014-Nov-21 12:50 050 4 0.5-2.0 Light snow.
2014-Nov-21 12:20 040 5 5.4-1.0
2014-Nov-21 11:50 050 6 5.4-1.0
2014-Nov-21 11:20 050 4 5.4-1.0
2014-Nov-21 10:50 050 5 5.4-1.0
2014-Nov-21 10:20 050 4 5.4-1.0
2014-Nov-21 09:50 5.4-1.0
2014-Nov-21 09:20 040 5 5.4-1.0
2014-Nov-21 08:50 040 5 5.4-1.0
2014-Nov-21 08:20 040 4 5.4-1.0
2014-Nov-21 07:50 040 4 5.4-1.0
2014-Nov-21 07:20 050 5 5.4-1.0
2014-Nov-21 06:50 050 5 5.4-1.0
2014-Nov-21 06:20 050 4 5.4-1.0
2014-Nov-21 05:50 050 5 5.4-1.0
2014-Nov-21 05:20 040 4 5.4-1.0
2014-Nov-21 04:50 050 4 5.4-1.0
2014-Nov-21 04:20 030 3 5.4-1.0
2014-Nov-21 03:50 030 4 5.4-1.0
2014-Nov-21 03:20 040 4 5.4-1.0
2014-Nov-21 02:50 020 4 4.9-1.0
2014-Nov-21 02:20 4.9-1.0
2014-Nov-21 01:50 4.9-1.0
2014-Nov-21 01:20 5.4-1.0
2014-Nov-21 00:50 020 4 5.4-1.0
2014-Nov-21 00:20 030 4 5.4-1.0